Everett, WA

5:02 PM PDT on May 27, 2017 (GMT -0700)
Snohomish County

Weather History for KPAE - October, 2012

Change the Weather History Date:

Sunday, October 14, 2012

  Actual Average Record
Temperature  
Mean Temperature 59 °F -  
Max Temperature 64 °F 59 °F 71 °F (2005)
Min Temperature 55 °F 42 °F 28 °F (1969)
Degree Days  
Heating Degree Days 6    
Growing Degree Days 9 (Base 50)    
Moisture  
Dew Point 55 °F    
Average Humidity 85    
Maximum Humidity 96    
Minimum Humidity 72    
Precipitation  
Precipitation 0.20 in - - ()
Sea Level Pressure  
Sea Level Pressure 29.96 in    
Wind  
Wind Speed 17 mph (South)    
Max Wind Speed 25 mph    
Max Gust Speed 32 mph    
Visibility 8 miles    
Events Fog , Rain    
Averages and records for this station are not official NWS values.
T = Trace of Precipitation, MM = Missing Value Source: NWS Daily Summary

Daily Weather History Graph

Daily Weather History Graph

Search for Another Location

Airport or City:

Trip Planner

Search our weather history database for the weather conditions in past years. The results will help you decide how hot, cold, wet, or windy it might be!

Date:

Astronomy

Oct. 14, 2012 Rise Set
Actual Time 7:27 AM PDT 6:21 PM PDT
Civil Twilight 6:56 AM PDT 6:52 PM PDT
Nautical Twilight 6:20 AM PDT 7:28 PM PDT
Astronomical Twilight 5:44 AM PDT 8:04 PM PDT
Moon 6:32 AM PDT (10/14) 5:43 PM PDT (10/14)
Length of Visible Light 11h 56m
Length of Day
10h 53m
Waning Crescent, 1% of the Moon is Illuminated
Oct 14
Waning Crescent
Oct 15
New
Oct 21
First Quarter
Oct 29
Full
Nov 6
Last Quarter

Hourly Weather History & Observations

Time (PDT) Temp. Dew Point Humidity Pressure Visibility Wind Dir Wind Speed Gust Speed Precip Events Conditions
12:26 AM 59.0 °F 55.4 °F 88% 30.09 in 10.0 mi South 23.0 mph 28.8 mph N/A   Overcast
12:53 AM 59.0 °F 55.0 °F 87% 30.08 in 10.0 mi South 19.6 mph 26.5 mph N/A   Mostly Cloudy
1:32 AM 59.0 °F 55.4 °F 88% 30.08 in 10.0 mi South 25.3 mph 31.1 mph N/A   Mostly Cloudy
1:53 AM 59.0 °F 55.0 °F 87% 30.07 in 10.0 mi South 19.6 mph 26.5 mph N/A   Mostly Cloudy
2:36 AM 59.0 °F 55.4 °F 88% 30.07 in 10.0 mi South 18.4 mph - N/A   Mostly Cloudy
2:53 AM 59.0 °F 55.0 °F 87% 30.07 in 10.0 mi South 16.1 mph - N/A   Mostly Cloudy
3:53 AM 59.0 °F 55.0 °F 87% 30.06 in 10.0 mi South 12.7 mph - N/A   Overcast
4:02 AM 59.0 °F 55.4 °F 88% 30.06 in 10.0 mi South 12.7 mph - N/A   Overcast
4:32 AM 59.0 °F 55.4 °F 88% 30.03 in 10.0 mi South 13.8 mph 24.2 mph N/A   Mostly Cloudy
4:53 AM 59.0 °F 54.0 °F 83% 30.04 in 10.0 mi South 10.4 mph - N/A   Mostly Cloudy
5:09 AM 60.8 °F 53.6 °F 77% 30.03 in 10.0 mi South 13.8 mph - N/A   Overcast
5:53 AM 60.1 °F 54.0 °F 80% 30.03 in 10.0 mi SSE 12.7 mph - N/A   Overcast
6:53 AM 60.1 °F 54.0 °F 80% 30.01 in 10.0 mi South 15.0 mph - N/A   Overcast
7:53 AM 60.1 °F 54.0 °F 80% 29.97 in 10.0 mi SSE 13.8 mph - N/A   Overcast
8:53 AM 60.1 °F 54.0 °F 80% 29.97 in 10.0 mi SSE 12.7 mph - 0.00 in   Overcast
9:53 AM 62.1 °F 54.0 °F 75% 29.96 in 10.0 mi South 18.4 mph - N/A   Overcast
10:53 AM 62.1 °F 54.0 °F 75% 29.96 in 10.0 mi South 18.4 mph 31.1 mph N/A   Overcast
11:53 AM 63.0 °F 55.0 °F 75% 29.95 in 10.0 mi South 24.2 mph 31.1 mph N/A   Overcast
12:53 PM 63.0 °F 54.0 °F 72% 29.95 in 10.0 mi SSW 21.9 mph 29.9 mph 0.00 in   Overcast
1:28 PM 62.6 °F 53.6 °F 72% 29.95 in 10.0 mi SSW 20.7 mph 31.1 mph N/A   Overcast
1:43 PM 62.6 °F 55.4 °F 77% 29.95 in 10.0 mi South 25.3 mph 31.1 mph N/A   Overcast
1:53 PM 62.1 °F 55.0 °F 78% 29.95 in 10.0 mi South 21.9 mph - 0.00 in Rain Light Rain
2:04 PM 62.6 °F 55.4 °F 77% 29.95 in 10.0 mi South 21.9 mph 31.1 mph 0.00 in Rain Light Rain
2:53 PM 60.1 °F 55.9 °F 86% 29.93 in 9.0 mi South 16.1 mph 27.6 mph 0.00 in Rain Light Rain
3:53 PM 60.1 °F 55.9 °F 86% 29.93 in 10.0 mi South 15.0 mph 24.2 mph 0.00 in Rain Light Rain
4:00 PM 60.8 °F 55.4 °F 82% 29.93 in 10.0 mi South 11.5 mph - 0.01 in Rain Light Rain
4:26 PM 60.8 °F 55.4 °F 82% 29.92 in 10.0 mi South 16.1 mph 23.0 mph 0.01 in Rain Light Rain
4:44 PM 60.8 °F 55.4 °F 82% 29.92 in 8.0 mi South 12.7 mph - 0.02 in Rain Light Rain
4:53 PM 60.1 °F 55.9 °F 86% 29.92 in 5.0 mi South 13.8 mph - 0.03 in Rain Light Rain
5:53 PM 60.1 °F 55.9 °F 86% 29.90 in 5.0 mi South 17.3 mph 23.0 mph 0.09 in Rain Rain
6:13 PM 60.8 °F 55.4 °F 82% 29.90 in 10.0 mi South 13.8 mph 27.6 mph 0.01 in Rain Light Rain
6:49 PM 59.0 °F 55.4 °F 88% 29.89 in 5.0 mi South 12.7 mph 23.0 mph 0.03 in Rain Light Rain
6:53 PM 59.0 °F 55.9 °F 90% 29.88 in 5.0 mi South 11.5 mph - 0.04 in Rain Light Rain
7:53 PM 59.0 °F 55.9 °F 90% 29.87 in 10.0 mi South 16.1 mph 21.9 mph 0.02 in   Overcast
8:53 PM 59.0 °F 55.9 °F 90% 29.86 in 10.0 mi South 18.4 mph - N/A   Overcast
9:00 PM 59.0 °F 55.4 °F 88% 29.86 in 10.0 mi South 21.9 mph 32.2 mph N/A   Overcast
9:53 PM 59.0 °F 55.9 °F 90% 29.88 in 10.0 mi SSW 15.0 mph - 0.00 in Rain Light Rain
10:53 PM 59.0 °F 55.9 °F 90% 29.89 in 6.0 mi SW 19.6 mph 25.3 mph 0.01 in Rain Light Rain
11:06 PM 57.2 °F 55.4 °F 94% 29.89 in 5.0 mi SSW 17.3 mph 26.5 mph N/A Rain Light Rain
11:16 PM 57.2 °F 55.4 °F 94% 29.89 in 10.0 mi SW 10.4 mph 23.0 mph 0.01 in Rain Light Rain
11:24 PM 57.2 °F 55.4 °F 94% 29.88 in 10.0 mi SSW 11.5 mph - 0.01 in   Overcast
11:34 PM 57.2 °F 55.4 °F 94% 29.88 in 0.8 mi WSW 10.4 mph - 0.01 in Rain Light Rain
11:41 PM 55.4 °F 53.6 °F 94% 29.89 in 0.2 mi West 6.9 mph 16.1 mph 0.01 in Fog , Rain Light Rain
11:48 PM 55.4 °F 53.6 °F 94% 29.90 in 0.2 mi West 6.9 mph - 0.01 in Fog , Rain Light Rain
11:53 PM 55.0 °F 54.0 °F 96% 29.89 in 0.5 mi West 5.8 mph - 0.01 in Fog Fog